| time (UTC) | temp F | wind direction | speed MPH | gust MPH | rain 1hr in | rain 24hr in | rain mn in | humidity % | barometer mb |
| 20260507130157 | 49 | 290 | 7.0 | 14.0 | 0.00 | 0.00 | 0.00 | 80 | 1020.0 |
| 20260507124529 | 49 | 310 | 6.0 | 10.0 | 0.00 | 0.00 | 0.00 | 79 | 1020.0 |
| 20260507123030 | 50 | 346 | 6.0 | 10.0 | 0.00 | 0.00 | 0.00 | 79 | 1020.2 |
| 20260507121530 | 50 | 336 | 7.0 | 11.0 | 0.00 | 0.00 | 0.00 | 80 | 1020.2 |
| 20260507120030 | 50 | 345 | 8.0 | 12.0 | 0.00 | 0.00 | 0.00 | 79 | 1020.0 |
| 20260507114534 | 50 | 345 | 6.0 | 11.0 | 0.00 | 0.00 | 0.00 | 79 | 1019.9 |
| 20260507113027 | 50 | 349 | 6.0 | 14.0 | 0.00 | 0.00 | 0.00 | 78 | 1019.9 |
| 20260507111531 | 50 | 2 | 4.0 | 10.0 | 0.00 | 0.00 | 0.00 | 77 | 1019.8 |
| 20260507110032 | 51 | 357 | 4.0 | 9.0 | 0.00 | 0.00 | 0.00 | 76 | 1019.7 |
| 20260507104533 | 51 | 343 | 3.0 | 10.0 | 0.00 | 0.00 | 0.00 | 76 | 1019.7 |
| 20260507103032 | 51 | 357 | 4.0 | 11.0 | 0.00 | 0.00 | 0.00 | 78 | 1019.8 |
| 20260507101531 | 50 | 318 | 3.0 | 7.0 | 0.00 | 0.00 | 0.00 | 80 | 1019.8 |
| 20260507100039 | 50 | 249 | 0.0 | 6.0 | 0.00 | 0.00 | 0.00 | 81 | 1019.8 |
| 20260507094532 | 50 | 278 | 2.0 | 8.0 | 0.00 | 0.00 | 0.00 | 81 | 1019.9 |
| 20260507093103 | 51 | 327 | 3.0 | 8.0 | 0.00 | 0.00 | 0.00 | 80 | 1019.9 |
| 20260507090028 | 51 | 332 | 4.0 | 9.0 | 0.00 | 0.00 | 0.00 | 80 | 1020.1 |
| 20260507084605 | 51 | 7 | 5.0 | 11.0 | 0.00 | 0.00 | 0.00 | 81 | 1020.1 |
| 20260507083106 | 51 | 11 | 4.0 | 8.0 | 0.00 | 0.00 | 0.00 | 81 | 1020.2 |
| 20260507081604 | 51 | 50 | 2.0 | 5.0 | 0.00 | 0.00 | 0.00 | 80 | 1020.3 |
| 20260507080030 | 53 | 13 | 2.0 | 5.0 | 0.00 | 0.00 | 0.00 | 75 | 1020.4 |
| 20260507071531 | 54 | 281 | 4.0 | 10.0 | 0.00 | 0.00 | 0.00 | 75 | 1020.6 |
| 20260507064533 | 54 | 308 | 6.0 | 13.0 | 0.00 | 0.00 | 0.00 | 74 | 1020.8 |
| 20260507063031 | 54 | 291 | 5.0 | 11.0 | 0.00 | 0.00 | 0.00 | 74 | 1020.7 |
| 20260507061530 | 55 | 283 | 4.0 | 7.0 | 0.00 | 0.00 | 0.00 | 73 | 1020.8 |
| 20260507060147 | 56 | 294 | 5.0 | 11.0 | 0.00 | 0.00 | 0.00 | 73 | 1020.9 |
| 20260507053026 | 56 | 290 | 6.0 | 13.0 | 0.00 | 0.00 | 0.00 | 74 | 1021.1 |
| 20260507050145 | 55 | 297 | 5.0 | 12.0 | 0.00 | 0.00 | 0.00 | 75 | 1021.2 |
| 20260507044528 | 55 | 267 | 1.0 | 4.0 | 0.00 | 0.00 | 0.00 | 75 | 1021.1 |
| 20260507043031 | 56 | 301 | 3.0 | 11.0 | 0.00 | 0.00 | 0.00 | 75 | 1021.0 |
| 20260507040105 | 56 | 309 | 3.0 | 6.0 | 0.00 | 0.00 | 0.00 | 67 | 1020.8 |
| 20260507034533 | 57 | 345 | 3.0 | 7.0 | 0.00 | 0.00 | 0.00 | 64 | 1020.7 |
| 20260507033105 | 59 | 338 | 3.0 | 7.0 | 0.00 | 0.00 | 0.00 | 60 | 1020.5 |
| 20260507031532 | 60 | 146 | 1.0 | 5.0 | 0.00 | 0.00 | 0.00 | 57 | 1020.5 |
| 20260507024604 | 62 | 54 | 3.0 | 7.0 | 0.00 | 0.00 | 0.00 | 52 | 1020.4 |
| 20260507021532 | 64 | 173 | 4.0 | 10.0 | 0.00 | 0.00 | 0.00 | 49 | 1020.3 |
| 20260507020029 | 65 | 250 | 4.0 | 11.0 | 0.00 | 0.00 | 0.00 | 47 | 1020.3 |
| 20260507014529 | 67 | 225 | 4.0 | 11.0 | 0.00 | 0.00 | 0.00 | 45 | 1020.3 |
| 20260507013030 | 68 | 302 | 4.0 | 12.0 | 0.00 | 0.00 | 0.00 | 44 | 1020.4 |
| 20260507011531 | 69 | 281 | 5.0 | 14.0 | 0.00 | 0.00 | 0.00 | 43 | 1020.4 |
| 20260507004608 | 70 | 290 | 6.0 | 18.0 | 0.00 | 0.00 | 0.00 | 41 | 1020.4 |
| 20260507003032 | 70 | 301 | 8.0 | 23.0 | 0.00 | 0.00 | 0.00 | 42 | 1020.3 |
| 20260507001531 | 70 | 310 | 6.0 | 15.0 | 0.00 | 0.00 | 0.00 | 43 | 1020.2 |
| 20260507000108 | 71 | 303 | 9.0 | 22.0 | 0.00 | 0.00 | 0.00 | 43 | 1020.2 |
| 20260506234528 | 70 | 310 | 8.0 | 25.0 | 0.00 | 0.00 | 0.00 | 44 | 1020.0 |
| 20260506231530 | 67 | 325 | 9.0 | 16.0 | 0.00 | 0.00 | 0.00 | 50 | 1020.2 |
| 20260506230033 | 69 | 309 | 8.0 | 19.0 | 0.00 | 0.00 | 0.00 | 49 | 1020.1 |
| 20260506223026 | 71 | 288 | 8.0 | 19.0 | 0.00 | 0.00 | 0.00 | 44 | 1020.0 |
| 20260506221532 | 72 | 265 | 6.0 | 16.0 | 0.00 | 0.00 | 0.00 | 44 | 1020.0 |
| 20260506220035 | 71 | 279 | 8.0 | 21.0 | 0.00 | 0.00 | 0.00 | 45 | 1020.0 |
| 20260506214532 | 71 | 252 | 6.0 | 20.0 | 0.00 | 0.00 | 0.00 | 45 | 1020.2 |
| 20260506213029 | 72 | 288 | 6.0 | 20.0 | 0.00 | 0.00 | 0.00 | 44 | 1020.2 |
| 20260506211530 | 73 | 283 | 6.0 | 18.0 | 0.00 | 0.00 | 0.00 | 43 | 1020.2 |
| 20260506210033 | 72 | 307 | 5.0 | 16.0 | 0.00 | 0.00 | 0.00 | 42 | 1020.3 |
| 20260506204531 | 72 | 257 | 8.0 | 17.0 | 0.00 | 0.00 | 0.00 | 43 | 1020.3 |
| 20260506201540 | 72 | 269 | 5.0 | 14.0 | 0.00 | 0.00 | 0.00 | 47 | 1020.5 |
| 20260506194541 | 69 | 312 | 10.0 | 19.0 | 0.00 | 0.00 | 0.00 | 51 | 1020.3 |
| 20260506191604 | 67 | 299 | 9.0 | 24.0 | 0.00 | 0.00 | 0.00 | 56 | 1020.5 |
| 20260506190034 | 66 | 281 | 10.0 | 20.0 | 0.00 | 0.00 | 0.00 | 58 | 1020.6 |
| 20260506181530 | 64 | 273 | 11.0 | 23.0 | 0.00 | 0.00 | 0.00 | 62 | 1020.5 |
| 20260506180028 | 63 | 255 | 9.0 | 24.0 | 0.00 | 0.00 | 0.00 | 64 | 1020.6 |
| 20260506174529 | 63 | 244 | 10.0 | 23.0 | 0.00 | 0.00 | 0.00 | 65 | 1020.7 |
| 20260506173029 | 63 | 279 | 11.0 | 24.0 | 0.00 | 0.00 | 0.00 | 65 | 1020.4 |
| 20260506171530 | 64 | 276 | 10.0 | 21.0 | 0.00 | 0.00 | 0.00 | 64 | 1020.3 |
| 20260506170031 | 63 | 299 | 4.0 | 14.0 | 0.00 | 0.00 | 0.00 | 66 | 1020.3 |
| 20260506164530 | 63 | 19 | 7.0 | 17.0 | 0.00 | 0.00 | 0.00 | 65 | 1020.3 |
| 20260506163030 | 62 | 320 | 3.0 | 18.0 | 0.00 | 0.00 | 0.00 | 65 | 1020.3 |
| 20260506160031 | 61 | 293 | 8.0 | 22.0 | 0.00 | 0.00 | 0.00 | 67 | 1020.6 |
| 20260506154529 | 60 | 294 | 8.0 | 19.0 | 0.00 | 0.00 | 0.00 | 69 | 1020.3 |
| 20260506153029 | 60 | 275 | 9.0 | 21.0 | 0.00 | 0.00 | 0.00 | 69 | 1020.5 |
| 20260506150028 | 59 | 150 | 1.0 | 5.0 | 0.00 | 0.00 | 0.00 | 71 | 1020.3 |
| 20260506144530 | 58 | 253 | 3.0 | 10.0 | 0.00 | 0.00 | 0.00 | 74 | 1020.4 |
| 20260506143030 | 56 | 256 | 3.0 | 11.0 | 0.00 | 0.00 | 0.00 | 75 | 1020.4 |
| 20260506141531 | 56 | 253 | 5.0 | 10.0 | 0.00 | 0.00 | 0.00 | 76 | 1020.3 |
| 20260506140033 | 55 | 294 | 3.0 | 11.0 | 0.00 | 0.00 | 0.00 | 77 | 1020.2 |
| 20260506133030 | 53 | 104 | 2.0 | 9.0 | 0.00 | 0.00 | 0.00 | 80 | 1019.9 |
| 20260506131531 | 53 | 102 | 2.0 | 7.0 | 0.00 | 0.00 | 0.00 | 81 | 1019.7 |